Location: Newark
(45.4422°N, 16.2769°E)
Time: 14:12:42
(UTC+00:00)

Vanguard 2 - Pass Details

Date: 13 December 2019
Orbit: 553 x 2938 km, 32.9° (Epoch: 25 January)

Event Time Altitude Azimuth Distance (km) Brightness Sun altitude
Rises 00:16:23 0° 238° (WSW) 5,667 - -61.4°
Reaches altitude 10° 00:19:53 10° 232° (SW) 4,932 - -61.0°
Maximum altitude 00:34:09 49° 165° (SSE) 3,427 - -59.1°
Exits shadow 00:40:43 37° 122° (ESE) 3,962 11.0 -58.2°
Drops below altitude 10° 00:50:41 10° 98° (E) 5,664 12.2 -56.7°
Sets 00:55:03 0° 94° (E) 6,537 12.7 -56.0°
